QPF
0.08 0.07 0.06 0.07 0.07 0.06 0.05 0.04 0.03 0.03 0.03 0.03 0.02 0.01 0.01 0.00 0.00 0.00 0.00 0.00 0.01 0.01 0.01 0.02 0.02 0.01 0.01 0.01 0.00 0.00 0.00 0.00 0.00 0.00 0.00 0.00 0.00 0.00 0.00 0.00 0.00 0.00 0.00
0.09 0.09 0.09 0.09 0.08 0.07 0.06 0.06 0.05 0.04 0.03 0.03 0.02 0.01 0.01 0.00 0.00 0.00 0.00 0.00 0.01 0.01 0.01 0.02 0.02 0.01 0.01 0.01 0.00 0.00 0.00 0.00 0.00 0.00 0.00 0.00 0.00 0.00 0.00 0.00 0.00 0.00 0.00
0.11 0.09 0.09 0.09 0.10 0.08 0.07 0.06 0.05 0.05 0.04 0.03 0.02 0.02 0.01 0.00 0.00 0.00 0.00 0.00 0.00 0.01 0.01 0.01 0.01 0.01 0.01 0.01 0.01 0.00 0.00 0.00 0.00 0.00 0.00 0.00 0.00 0.00 0.00 0.00 0.00 0.00 0.01
0.11 0.12 0.10 0.09 0.09 0.09 0.08 0.07 0.05 0.04 0.03 0.02 0.02 0.01 0.01 0.00 0.00 0.00 0.00 0.00 0.00 0.00 0.01 0.01 0.01 0.01 0.01 0.01 0.01 0.00 0.00 0.00 0.00 0.00 0.00 0.00 0.00 0.00 0.00 0.00 0.00 0.01 0.01
0.09 0.11 0.11 0.10 0.11 0.10 0.07 0.06 0.05 0.04 0.03 0.02 0.02 0.01 0.01 0.01 0.00 0.00 0.00 0.00 0.00 0.00 0.00 0.00 0.00 0.00 0.01 0.01 0.01 0.01 0.00 0.00 0.00 0.00 0.00 0.00 0.00 0.00 0.01 0.01 0.01 0.01 0.01
0.08 0.09 0.10 0.12 0.12 0.12 0.09 0.07 0.06 0.04 0.03 0.03 0.02 0.02 0.01 0.01 0.00 0.00 0.00 0.00 0.00 0.00 0.00 0.00 0.00 0.00 0.00 0.00 0.01 0.01 0.01 0.01 0.01 0.01 0.00 0.00 0.00 0.00 0.01 0.01 0.01 0.01 0.01
0.06 0.09 0.09 0.11 0.12 0.12 0.11 0.09 0.08 0.07 0.06 0.05 0.04 0.03 0.02 0.02 0.01 0.00 0.00 0.00 0.00 0.00 0.00 0.00 0.00 0.00 0.00 0.00 0.00 0.01 0.01 0.01 0.01 0.01 0.01 0.00 0.00 0.01 0.01 0.01 0.01 0.01 0.01
0.04 0.07 0.10 0.10 0.11 0.12 0.12 0.11 0.10 0.09 0.08 0.07 0.06 0.05 0.04 0.03 0.02 0.01 0.00 0.00 0.00 0.00 0.00 0.00 0.00 0.00 0.00 0.00 0.00 0.00 0.01 0.01 0.01 0.01 0.01 0.01 0.01 0.01 0.01 0.01 0.01 0.01 0.01
0.03 0.05 0.09 0.12 0.11 0.11 0.11 0.11 0.10 0.10 0.08 0.07 0.06 0.06 0.05 0.03 0.02 0.01 0.01 0.01 0.00 0.00 0.00 0.00 0.00 0.00 0.00 0.00 0.00 0.00 0.00 0.01 0.01 0.01 0.01 0.01 0.01 0.01 0.01 0.01 0.01 0.01 0.01
0.04 0.05 0.06 0.09 0.13 0.12 0.11 0.11 0.11 0.10 0.10 0.08 0.06 0.06 0.04 0.03 0.02 0.02 0.01 0.01 0.01 0.00 0.00 0.00 0.00 0.00 0.00 0.00 0.00 0.00 0.00 0.00 0.00 0.00 0.01 0.01 0.01 0.02 0.02 0.02 0.02 0.01 0.01
0.05 0.05 0.06 0.07 0.10 0.12 0.11 0.11 0.10 0.11 0.11 0.10 0.08 0.07 0.06 0.04 0.03 0.02 0.02 0.01 0.01 0.01 0.00 0.00 0.00 0.00 0.00 0.00 0.00 0.00 0.00 0.00 0.00 0.00 0.00 0.00 0.01 0.02 0.02 0.01 0.01 0.01 0.01
0.07 0.06 0.07 0.07 0.08 0.10 0.10 0.11 0.11 0.10 0.09 0.09 0.08 0.08 0.07 0.05 0.04 0.03 0.02 0.01 0.01 0.01 0.00 0.00 0.00 0.00 0.00 0.00 0.00 0.00 0.00 0.00 0.00 0.00 0.00 0.00 0.00 0.01 0.01 0.01 0.01 0.01 0.01
0.07 0.06 0.07 0.07 0.07 0.09 0.09 0.09 0.11 0.11 0.09 0.08 0.08 0.07 0.06 0.05 0.04 0.04 0.03 0.02 0.02 0.01 0.01 0.00 0.00 0.00 0.00 0.00 0.00 0.00 0.00 0.00 0.00 0.00 0.00 0.00 0.00 0.00 0.00 0.01 0.01 0.01 0.01
0.07 0.06 0.07 0.09 0.09 0.09 0.10 0.10 0.10 0.11 0.11 0.09 0.07 0.06 0.06 0.05 0.04 0.04 0.04 0.03 0.02 0.01 0.01 0.00 0.00 0.00 0.00 0.00 0.00 0.00 0.00 0.00 0.00 0.00 0.00 0.00 0.00 0.00 0.00 0.00 0.00 0.01 0.01
0.08 0.06 0.07 0.09 0.11 0.12 0.12 0.12 0.11 0.11 0.11 0.11 0.09 0.07 0.07 0.06 0.05 0.04 0.04 0.03 0.03 0.02 0.01 0.00 0.00 0.00 0.00 0.00 0.00 0.00 0.00 0.00 0.00 0.00 0.00 0.00 0.00 0.00 0.00 0.00 0.00 0.00 0.00
0.09 0.07 0.07 0.07 0.09 0.11 0.13 0.13 0.13 0.12 0.12 0.12 0.11 0.09 0.08 0.07 0.06 0.06 0.05 0.04 0.04 0.03 0.02 0.01 0.00 0.00 0.00 0.00 0.00 0.00 0.00 0.00 0.00 0.00 0.00 0.00 0.00 0.00 0.00 0.00 0.00 0.00 0.00
0.10 0.08 0.09 0.08 0.08 0.11 0.13 0.13 0.14 0.14 0.14 0.14 0.13 0.11 0.08 0.07 0.06 0.05 0.05 0.05 0.05 0.04 0.04 0.02 0.01 0.00 0.00 0.00 0.00 0.00 0.00 0.00 0.00 0.00 0.00 0.00 0.00 0.00 0.00 0.00 0.00 0.00 0.00
0.08 0.07 0.08 0.10 0.09 0.09 0.10 0.12 0.13 0.13 0.14 0.13 0.13 0.12 0.10 0.09 0.08 0.07 0.06 0.06 0.05 0.04 0.04 0.03 0.02 0.01 0.00 0.00 0.00 0.01 0.01 0.01 0.01 0.01 0.01 0.01 0.01 0.01 0.01 0.00 0.00 0.00 0.00
0.10 0.07 0.07 0.09 0.09 0.08 0.07 0.08 0.09 0.10 0.12 0.12 0.11 0.11 0.10 0.09 0.09 0.08 0.07 0.07 0.06 0.05 0.05 0.05 0.03 0.02 0.01 0.01 0.01 0.01 0.01 0.01 0.01 0.01 0.01 0.01 0.01 0.01 0.01 0.01 0.01 0.00 0.00
0.10 0.11 0.08 0.09 0.09 0.08 0.08 0.07 0.07 0.08 0.09 0.10 0.10 0.10 0.09 0.08 0.08 0.07 0.07 0.08 0.08 0.08 0.09 0.09 0.06 0.04 0.03 0.02 0.02 0.02 0.02 0.02 0.02 0.02 0.02 0.02 0.01 0.01 0.01 0.01 0.01 0.01 0.01
0.07 0.09 0.11 0.09 0.09 0.09 0.08 0.07 0.08 0.08 0.08 0.09 0.09 0.09 0.09 0.08 0.08 0.08 0.07 0.07 0.07 0.08 0.09 0.09 0.07 0.05 0.04 0.04 0.03 0.02 0.03 0.03 0.03 0.02 0.02 0.02 0.02 0.02 0.02 0.02 0.02 0.02 0.02
0.06 0.08 0.10 0.11 0.10 0.10 0.10 0.08 0.07 0.08 0.08 0.08 0.09 0.09 0.09 0.08 0.08 0.09 0.08 0.07 0.07 0.07 0.07 0.06 0.05 0.04 0.03 0.02 0.02 0.02 0.03 0.03 0.03 0.03 0.03 0.03 0.03 0.03 0.03 0.03 0.03 0.03 0.02
0.07 0.06 0.09 0.11 0.13 0.13 0.13 0.11 0.08 0.07 0.08 0.08 0.07 0.08 0.09 0.08 0.08 0.08 0.09 0.09 0.08 0.08 0.07 0.06 0.05 0.03 0.02 0.02 0.02 0.03 0.03 0.03 0.03 0.03 0.03 0.04 0.04 0.04 0.03 0.03 0.03 0.03 0.02
0.08 0.08 0.07 0.07 0.08 0.08 0.11 0.14 0.14 0.10 0.09 0.08 0.08 0.09 0.09 0.08 0.08 0.07 0.08 0.09 0.09 0.08 0.07 0.07 0.06 0.03 0.02 0.02 0.03 0.03 0.03 0.04 0.03 0.03 0.03 0.04 0.04 0.04 0.04 0.04 0.04 0.03 0.03
0.06 0.08 0.09 0.09 0.09 0.08 0.08 0.10 0.13 0.13 0.12 0.11 0.10 0.09 0.10 0.09 0.08 0.08 0.08 0.08 0.08 0.08 0.08 0.07 0.07 0.05 0.04 0.04 0.05 0.05 0.05 0.05 0.04 0.03 0.04 0.04 0.04 0.04 0.04 0.04 0.03 0.03 0.03
0.05 0.07 0.08 0.08 0.11 0.12 0.10 0.09 0.11 0.11 0.11 0.11 0.12 0.10 0.09 0.09 0.08 0.07 0.07 0.08 0.07 0.07 0.06 0.06 0.06 0.06 0.05 0.06 0.06 0.06 0.05 0.05 0.05 0.04 0.03 0.04 0.04 0.04 0.05 0.05 0.04 0.04 0.05
MSLP
1014.68 1014.93 1015.18 1015.44 1015.70 1015.94 1016.17 1016.35 1016.50 1016.59 1016.65 1016.67 1016.67 1016.67 1016.68 1016.71 1016.75 1016.81 1016.88 1016.95 1016.99 1017.01 1017.00 1016.96 1016.89 1016.82 1016.75 1016.69 1016.67 1016.68 1016.73 1016.79 1016.87 1016.93 1016.97 1016.97 1016.93 1016.85 1016.73 1016.57 1016.40 1016.23 1016.05
1014.43 1014.66 1014.90 1015.16 1015.42 1015.68 1015.92 1016.13 1016.29 1016.41 1016.47 1016.50 1016.49 1016.46 1016.43 1016.42 1016.42 1016.44 1016.48 1016.52 1016.56 1016.59 1016.59 1016.57 1016.52 1016.46 1016.39 1016.32 1016.28 1016.25 1016.26 1016.29 1016.35 1016.40 1016.45 1016.47 1016.47 1016.44 1016.37 1016.27 1016.16 1016.03 1015.89
1014.18 1014.40 1014.63 1014.88 1015.15 1015.43 1015.69 1015.92 1016.11 1016.24 1016.31 1016.32 1016.29 1016.22 1016.14 1016.06 1016.00 1015.96 1015.95 1015.96 1015.99 1016.02 1016.05 1016.06 1016.05 1016.01 1015.96 1015.89 1015.83 1015.78 1015.76 1015.76 1015.78 1015.81 1015.86 1015.90 1015.93 1015.94 1015.93 1015.89 1015.84 1015.77 1015.69
1013.91 1014.13 1014.37 1014.63 1014.90 1015.19 1015.46 1015.71 1015.91 1016.05 1016.12 1016.11 1016.05 1015.93 1015.79 1015.64 1015.50 1015.39 1015.32 1015.29 1015.30 1015.34 1015.39 1015.43 1015.46 1015.46 1015.44 1015.39 1015.33 1015.27 1015.22 1015.18 1015.18 1015.19 1015.23 1015.28 1015.33 1015.37 1015.41 1015.43 1015.44 1015.43 1015.41
1013.63 1013.85 1014.09 1014.35 1014.64 1014.92 1015.20 1015.45 1015.66 1015.80 1015.86 1015.84 1015.74 1015.58 1015.38 1015.17 1014.96 1014.78 1014.65 1014.57 1014.55 1014.58 1014.64 1014.71 1014.78 1014.82 1014.83 1014.81 1014.76 1014.70 1014.64 1014.59 1014.57 1014.57 1014.59 1014.64 1014.70 1014.77 1014.84 1014.91 1014.96 1015.01 1015.05
1013.28 1013.51 1013.76 1014.03 1014.31 1014.59 1014.86 1015.11 1015.31 1015.44 1015.49 1015.46 1015.35 1015.17 1014.93 1014.67 1014.41 1014.17 1013.98 1013.85 1013.80 1013.80 1013.85 1013.93 1014.01 1014.08 1014.12 1014.13 1014.12 1014.07 1014.02 1013.98 1013.95 1013.94 1013.96 1014.01 1014.07 1014.15 1014.24 1014.34 1014.43 1014.52 1014.61
1012.84 1013.09 1013.34 1013.61 1013.88 1014.15 1014.41 1014.64 1014.83 1014.96 1015.02 1014.99 1014.89 1014.71 1014.47 1014.19 1013.89 1013.62 1013.38 1013.20 1013.09 1013.05 1013.07 1013.12 1013.20 1013.27 1013.34 1013.37 1013.39 1013.38 1013.36 1013.33 1013.32 1013.33 1013.35 1013.40 1013.46 1013.55 1013.64 1013.75 1013.87 1013.99 1014.11
1012.29 1012.56 1012.82 1013.08 1013.34 1013.59 1013.83 1014.04 1014.23 1014.36 1014.44 1014.44 1014.37 1014.22 1014.01 1013.75 1013.46 1013.16 1012.89 1012.66 1012.49 1012.38 1012.33 1012.33 1012.37 1012.42 1012.48 1012.54 1012.58 1012.61 1012.63 1012.65 1012.67 1012.70 1012.75 1012.80 1012.87 1012.95 1013.05 1013.16 1013.29 1013.44 1013.59
1011.64 1011.92 1012.18 1012.44 1012.68 1012.91 1013.13 1013.34 1013.52 1013.67 1013.77 1013.83 1013.81 1013.73 1013.58 1013.37 1013.10 1012.82 1012.52 1012.25 1012.01 1011.81 1011.68 1011.59 1011.56 1011.56 1011.59 1011.64 1011.71 1011.77 1011.84 1011.91 1011.98 1012.05 1012.12 1012.19 1012.26 1012.35 1012.45 1012.57 1012.71 1012.88 1013.06
1010.92 1011.21 1011.48 1011.72 1011.95 1012.17 1012.37 1012.56 1012.75 1012.92 1013.06 1013.17 1013.23 1013.23 1013.16 1013.02 1012.81 1012.55 1012.25 1011.93 1011.62 1011.34 1011.10 1010.91 1010.78 1010.71 1010.69 1010.72 1010.79 1010.88 1010.99 1011.11 1011.23 1011.34 1011.44 1011.53 1011.62 1011.71 1011.82 1011.95 1012.12 1012.32 1012.54
1010.19 1010.47 1010.74 1010.97 1011.19 1011.39 1011.58 1011.77 1011.96 1012.15 1012.33 1012.50 1012.64 1012.72 1012.73 1012.67 1012.52 1012.29 1011.99 1011.65 1011.28 1010.91 1010.57 1010.27 1010.04 1009.88 1009.80 1009.80 1009.85 1009.95 1010.09 1010.24 1010.40 1010.54 1010.67 1010.78 1010.89 1011.00 1011.13 1011.29 1011.50 1011.74 1012.03
1009.47 1009.76 1010.02 1010.25 1010.45 1010.64 1010.82 1010.99 1011.18 1011.38 1011.59 1011.80 1011.99 1012.14 1012.23 1012.24 1012.15 1011.95 1011.67 1011.31 1010.90 1010.46 1010.04 1009.65 1009.33 1009.09 1008.95 1008.89 1008.92 1009.01 1009.16 1009.32 1009.49 1009.66 1009.80 1009.94 1010.06 1010.20 1010.36 1010.56 1010.82 1011.14 1011.50
1008.84 1009.11 1009.36 1009.58 1009.77 1009.94 1010.10 1010.26 1010.44 1010.63 1010.84 1011.06 1011.28 1011.47 1011.60 1011.66 1011.61 1011.46 1011.20 1010.84 1010.42 1009.95 1009.47 1009.02 1008.64 1008.33 1008.13 1008.03 1008.02 1008.09 1008.21 1008.37 1008.53 1008.69 1008.84 1008.98 1009.13 1009.29 1009.49 1009.76 1010.09 1010.49 1010.94
1008.29 1008.56 1008.79 1009.00 1009.18 1009.33 1009.47 1009.60 1009.74 1009.89 1010.07 1010.27 1010.48 1010.66 1010.81 1010.89 1010.87 1010.75 1010.52 1010.19 1009.78 1009.31 1008.82 1008.36 1007.94 1007.60 1007.36 1007.21 1007.16 1007.19 1007.28 1007.40 1007.54 1007.68 1007.81 1007.95 1008.11 1008.30 1008.55 1008.88 1009.29 1009.78 1010.33
1007.86 1008.11 1008.33 1008.53 1008.68 1008.81 1008.91 1009.00 1009.09 1009.19 1009.31 1009.45 1009.60 1009.74 1009.86 1009.93 1009.93 1009.83 1009.63 1009.34 1008.97 1008.54 1008.08 1007.63 1007.22 1006.88 1006.62 1006.45 1006.36 1006.34 1006.38 1006.46 1006.55 1006.65 1006.76 1006.88 1007.05 1007.27 1007.57 1007.96 1008.46 1009.04 1009.69
1007.54 1007.76 1007.97 1008.15 1008.29 1008.39 1008.45 1008.49 1008.51 1008.53 1008.56 1008.62 1008.68 1008.76 1008.82 1008.85 1008.83 1008.74 1008.58 1008.33 1008.02 1007.65 1007.25 1006.85 1006.48 1006.16 1005.90 1005.71 1005.59 1005.53 1005.52 1005.54 1005.57 1005.63 1005.71 1005.83 1006.00 1006.25 1006.60 1007.06 1007.63 1008.30 1009.04
1007.30 1007.52 1007.72 1007.88 1008.00 1008.07 1008.09 1008.07 1008.02 1007.96 1007.89 1007.84 1007.81 1007.79 1007.77 1007.74 1007.69 1007.59 1007.45 1007.24 1006.98 1006.68 1006.35 1006.02 1005.70 1005.41 1005.17 1004.98 1004.83 1004.74 1004.68 1004.64 1004.64 1004.66 1004.71 1004.83 1005.01 1005.29 1005.69 1006.21 1006.85 1007.59 1008.39
1007.15 1007.36 1007.55 1007.70 1007.81 1007.85 1007.83 1007.76 1007.64 1007.50 1007.34 1007.19 1007.05 1006.93 1006.82 1006.72 1006.62 1006.50 1006.35 1006.17 1005.95 1005.71 1005.44 1005.16 1004.88 1004.63 1004.40 1004.20 1004.05 1003.92 1003.83 1003.76 1003.73 1003.73 1003.79 1003.91 1004.13 1004.45 1004.89 1005.46 1006.15 1006.95 1007.80
1007.05 1007.26 1007.44 1007.59 1007.68 1007.71 1007.66 1007.55 1007.38 1007.17 1006.94 1006.70 1006.47 1006.25 1006.06 1005.89 1005.72 1005.56 1005.39 1005.20 1005.00 1004.77 1004.53 1004.28 1004.03 1003.79 1003.57 1003.37 1003.20 1003.06 1002.95 1002.88 1002.84 1002.86 1002.94 1003.10 1003.36 1003.73 1004.23 1004.85 1005.58 1006.41 1007.29
1006.98 1007.19 1007.37 1007.51 1007.60 1007.62 1007.56 1007.42 1007.22 1006.97 1006.69 1006.39 1006.09 1005.80 1005.54 1005.29 1005.05 1004.83 1004.61 1004.39 1004.16 1003.92 1003.66 1003.40 1003.14 1002.89 1002.65 1002.44 1002.26 1002.12 1002.02 1001.96 1001.96 1002.02 1002.16 1002.38 1002.71 1003.15 1003.70 1004.37 1005.13 1005.98 1006.87
1006.91 1007.12 1007.30 1007.44 1007.52 1007.53 1007.47 1007.33 1007.12 1006.86 1006.55 1006.22 1005.89 1005.55 1005.23 1004.92 1004.62 1004.33 1004.04 1003.75 1003.46 1003.16 1002.85 1002.54 1002.23 1001.94 1001.67 1001.44 1001.25 1001.11 1001.03 1001.02 1001.08 1001.21 1001.43 1001.75 1002.16 1002.68 1003.30 1004.01 1004.81 1005.66 1006.54
1006.81 1007.00 1007.18 1007.31 1007.39 1007.40 1007.34 1007.20 1007.01 1006.75 1006.46 1006.13 1005.79 1005.43 1005.07 1004.72 1004.36 1004.00 1003.63 1003.26 1002.88 1002.49 1002.10 1001.71 1001.33 1000.97 1000.66 1000.40 1000.20 1000.07 1000.02 1000.07 1000.20 1000.43 1000.76 1001.18 1001.70 1002.30 1002.99 1003.75 1004.57 1005.43 1006.30
1006.62 1006.80 1006.96 1007.07 1007.14 1007.15 1007.09 1006.98 1006.80 1006.58 1006.31 1006.02 1005.69 1005.34 1004.97 1004.59 1004.19 1003.77 1003.33 1002.87 1002.40 1001.91 1001.42 1000.93 1000.47 1000.04 999.67 999.38 999.16 999.05 999.05 999.15 999.37 999.70 1000.14 1000.67 1001.29 1001.98 1002.74 1003.55 1004.40 1005.26 1006.13
1006.33 1006.48 1006.61 1006.70 1006.74 1006.74 1006.69 1006.59 1006.45 1006.27 1006.04 1005.79 1005.50 1005.18 1004.83 1004.44 1004.02 1003.56 1003.07 1002.54 1001.98 1001.40 1000.82 1000.25 999.70 999.21 998.79 998.46 998.23 998.13 998.16 998.33 998.63 999.05 999.58 1000.22 1000.93 1001.70 1002.52 1003.38 1004.25 1005.12 1005.98
1005.91 1006.02 1006.11 1006.17 1006.19 1006.17 1006.12 1006.03 1005.92 1005.77 1005.60 1005.40 1005.16 1004.88 1004.57 1004.20 1003.78 1003.31 1002.79 1002.22 1001.61 1000.97 1000.33 999.69 999.09 998.54 998.08 997.72 997.48 997.39 997.44 997.65 998.01 998.50 999.11 999.81 1000.60 1001.43 1002.31 1003.20 1004.10 1004.98 1005.84
1005.38 1005.44 1005.49 1005.50 1005.49 1005.45 1005.39 1005.32 1005.22 1005.12 1004.99 1004.84 1004.66 1004.43 1004.16 1003.83 1003.44 1002.98 1002.47 1001.89 1001.27 1000.62 999.95 999.28 998.65 998.07 997.58 997.21 996.96 996.87 996.93 997.16 997.54 998.07 998.72 999.47 1000.30 1001.17 1002.08 1003.00 1003.91 1004.81 1005.68
Thickness
5705 5704 5704 5703 5702 5701 5700 5698 5697 5696 5694 5692 5690 5689 5688 5687 5686 5684 5682 5679 5677 5675 5674 5672 5669 5667 5664 5661 5659 5656 5654 5652 5649 5647 5644 5642 5639 5637 5634 5632 5629 5626 5623
5697 5697 5697 5696 5696 5696 5695 5693 5692 5691 5689 5687 5685 5684 5683 5682 5681 5679 5678 5675 5672 5671 5669 5667 5665 5663 5660 5657 5654 5652 5649 5647 5645 5642 5639 5637 5634 5631 5629 5626 5623 5620 5617
5689 5689 5690 5690 5690 5689 5688 5687 5686 5685 5683 5681 5679 5678 5678 5677 5675 5674 5673 5671 5669 5666 5664 5663 5661 5658 5656 5653 5650 5648 5645 5642 5640 5637 5635 5632 5629 5626 5623 5621 5618 5615 5612
5680 5680 5681 5682 5682 5682 5681 5679 5679 5677 5677 5675 5674 5673 5672 5671 5670 5669 5668 5667 5665 5664 5660 5658 5656 5654 5652 5649 5646 5644 5641 5638 5636 5633 5630 5627 5624 5622 5619 5616 5613 5609 5606
5670 5671 5672 5674 5674 5674 5673 5672 5672 5671 5670 5669 5669 5667 5667 5665 5664 5663 5663 5661 5660 5659 5657 5654 5651 5649 5647 5644 5642 5640 5637 5634 5632 5629 5626 5623 5620 5617 5614 5611 5608 5604 5600
5660 5661 5663 5664 5665 5665 5665 5665 5664 5663 5663 5662 5661 5660 5660 5659 5658 5658 5657 5656 5654 5653 5652 5650 5647 5645 5642 5639 5637 5635 5633 5631 5628 5625 5622 5619 5616 5613 5610 5606 5603 5599 5595
5649 5650 5653 5654 5655 5656 5657 5658 5657 5656 5654 5654 5651 5650 5651 5652 5652 5652 5652 5651 5650 5648 5646 5645 5643 5642 5639 5636 5633 5631 5629 5627 5624 5621 5618 5615 5612 5609 5605 5602 5598 5594 5590
5639 5641 5643 5645 5646 5647 5648 5650 5649 5649 5648 5646 5646 5643 5643 5644 5646 5647 5647 5646 5645 5643 5642 5640 5639 5637 5635 5633 5630 5627 5624 5622 5620 5617 5614 5611 5608 5604 5601 5597 5593 5589 5585
5628 5630 5633 5635 5637 5638 5640 5642 5642 5641 5641 5640 5641 5641 5640 5644 5644 5643 5642 5641 5640 5639 5638 5636 5634 5632 5630 5629 5627 5623 5621 5618 5616 5613 5610 5607 5604 5600 5596 5592 5588 5583 5579
5617 5620 5622 5625 5627 5629 5632 5633 5634 5634 5633 5633 5633 5636 5640 5642 5638 5638 5637 5636 5635 5634 5633 5632 5630 5628 5626 5624 5622 5620 5617 5614 5611 5609 5606 5603 5600 5596 5592 5587 5583 5578 5573
5607 5609 5611 5614 5617 5620 5623 5625 5626 5627 5627 5628 5628 5628 5629 5630 5633 5633 5633 5631 5629 5629 5628 5627 5626 5624 5622 5621 5619 5617 5613 5610 5607 5604 5601 5598 5595 5591 5587 5582 5578 5573 5568
5596 5598 5600 5603 5607 5610 5613 5616 5618 5619 5620 5621 5622 5623 5623 5624 5626 5627 5629 5628 5627 5626 5623 5621 5620 5620 5618 5616 5615 5613 5609 5606 5602 5599 5596 5592 5589 5585 5581 5577 5572 5567 5562
5585 5587 5590 5593 5596 5600 5603 5605 5608 5611 5612 5614 5615 5616 5617 5619 5619 5619 5620 5621 5621 5621 5618 5616 5615 5614 5613 5612 5611 5607 5604 5601 5598 5594 5591 5587 5583 5580 5575 5571 5567 5562 5557
5576 5578 5580 5584 5587 5590 5593 5596 5598 5601 5603 5605 5607 5608 5609 5611 5611 5611 5612 5611 5611 5613 5613 5614 5611 5609 5608 5607 5606 5602 5599 5596 5593 5590 5586 5582 5578 5574 5569 5565 5560 5555 5550
5565 5568 5571 5574 5577 5580 5583 5586 5589 5592 5595 5597 5599 5599 5601 5602 5604 5605 5605 5605 5603 5604 5609 5610 5607 5606 5603 5601 5599 5596 5595 5592 5589 5585 5581 5577 5573 5568 5564 5559 5554 5549 5544
5556 5558 5561 5564 5567 5570 5573 5576 5580 5583 5586 5588 5590 5591 5593 5595 5596 5597 5597 5597 5597 5597 5601 5606 5603 5601 5597 5595 5593 5591 5590 5587 5584 5580 5576 5572 5568 5563 5558 5553 5548 5543 5538
5545 5549 5552 5554 5557 5560 5563 5566 5570 5574 5577 5580 5581 5584 5586 5587 5588 5589 5589 5590 5590 5590 5591 5594 5592 5591 5589 5588 5586 5584 5583 5580 5579 5575 5571 5567 5562 5558 5553 5548 5542 5537 5532
5536 5539 5543 5546 5549 5552 5554 5557 5561 5565 5569 5573 5575 5576 5578 5580 5580 5581 5581 5582 5582 5583 5583 5584 5583 5581 5582 5581 5580 5578 5576 5574 5572 5570 5566 5561 5557 5553 5547 5542 5537 5531 5526
5528 5532 5535 5539 5542 5544 5546 5549 5553 5556 5561 5565 5567 5569 5571 5572 5573 5574 5574 5574 5575 5576 5576 5576 5576 5574 5573 5571 5570 5569 5568 5566 5564 5562 5558 5555 5551 5547 5541 5536 5531 5526 5521
5520 5524 5528 5531 5534 5536 5539 5542 5544 5547 5552 5556 5559 5561 5564 5566 5568 5568 5568 5569 5568 5568 5568 5568 5568 5568 5566 5563 5561 5561 5561 5559 5557 5554 5551 5548 5545 5540 5535 5530 5526 5521 5515
5512 5516 5519 5522 5526 5529 5533 5534 5535 5538 5543 5548 5552 5555 5557 5559 5561 5561 5561 5563 5562 5562 5561 5561 5562 5561 5560 5556 5556 5556 5555 5553 5550 5547 5545 5542 5539 5535 5530 5525 5520 5515 5510
5503 5507 5510 5514 5519 5522 5525 5525 5527 5531 5535 5540 5545 5548 5550 5551 5552 5553 5554 5555 5556 5556 5557 5557 5557 5558 5559 5556 5553 5550 5548 5545 5545 5542 5538 5537 5533 5530 5525 5521 5516 5511 5505
5494 5498 5502 5506 5510 5514 5516 5518 5520 5523 5529 5533 5538 5542 5544 5546 5545 5547 5547 5546 5547 5549 5552 5553 5553 5556 5555 5553 5549 5545 5543 5542 5542 5537 5530 5530 5526 5523 5520 5515 5510 5505 5500
5485 5489 5494 5498 5501 5506 5508 5511 5513 5517 5522 5528 5532 5536 5538 5540 5540 5540 5540 5540 5541 5542 5544 5546 5549 5551 5550 5547 5544 5541 5538 5533 5529 5526 5524 5523 5520 5516 5512 5508 5504 5499 5494
5477 5481 5485 5489 5493 5498 5500 5503 5505 5510 5517 5522 5526 5529 5531 5534 5535 5533 5533 5534 5533 5535 5535 5537 5538 5540 5540 5538 5535 5531 5528 5524 5522 5519 5516 5514 5512 5507 5504 5501 5497 5492 5488
5468 5472 5477 5481 5485 5489 5492 5495 5497 5502 5510 5515 5519 5522 5524 5527 5528 5526 5527 5528 5528 5529 5528 5527 5528 5530 5530 5529 5528 5527 5525 5522 5518 5514 5510 5506 5503 5498 5494 5493 5489 5485 5481